Clinton, OK

6:02 PM CST on February 12, 2016 (GMT -0600)
Clinton Municipal

Weather History for KCLK - May, 2014

Change the Weather History Date:

Saturday, May 17, 2014

  Actual Average (KCSM) Record (KCSM)
Temperature  
Mean Temperature 60 °F -  
Max Temperature 71 °F 79 °F 96 °F (2000)
Min Temperature 48 °F 56 °F 50 °F (2002)
Degree Days  
Heating Degree Days 6    
Growing Degree Days 10 (Base 50)    
Moisture  
Dew Point 41 °F    
Average Humidity 52    
Maximum Humidity 82    
Minimum Humidity 27    
Precipitation  
Precipitation 0.00 in - - ()
Sea Level Pressure  
Sea Level Pressure 30.07 in    
Wind  
Wind Speed 15 mph (ENE)    
Max Wind Speed 30 mph    
Max Gust Speed 38 mph    
Visibility 10 miles    
Events      
Averages and records for this station are not official NWS values.
T = Trace of Precipitation, MM = Missing Value Source: NWS Daily Summary

Daily Weather History Graph

Daily Weather History Graph

Search for Another Location

Airport or City:

Trip Planner

Search our weather history database for the weather conditions in past years. The results will help you decide how hot, cold, wet, or windy it might be!

Date:

Astronomy

May. 17, 2014 Rise Set
Actual Time 6:29 AM CDT 8:35 PM CDT
Civil Twilight 6:00 AM CDT 9:03 PM CDT
Nautical Twilight 5:26 AM CDT 9:38 PM CDT
Astronomical Twilight 4:48 AM CDT 10:16 PM CDT
Moon 11:38 PM CDT (5/17) 9:13 AM CDT (5/17)
Length of Visible Light 15h 02m
Length of Day
14h 05m
Waning Gibbous, 89% of the Moon is Illuminated
May 17
Waning Gibbous
May 21
Last Quarter
May 28
New
Jun 5
First Quarter
Jun 12
Full

Hourly Weather History & Observations

Time (CDT) Temp. Dew Point Humidity Pressure Visibility Wind Dir Wind Speed Gust Speed Precip Events Conditions
12:15 AM 55.4 °F 35.6 °F 47% 30.03 in 10.0 mi NE 29.9 mph 38.0 mph N/A   Scattered Clouds
12:35 AM 55.4 °F 35.6 °F 47% 30.03 in 10.0 mi NE 25.3 mph 32.2 mph N/A   Scattered Clouds
12:55 AM 53.6 °F 35.6 °F 51% 30.04 in 10.0 mi NE 24.2 mph 29.9 mph N/A   Mostly Cloudy
1:15 AM 53.6 °F 35.6 °F 51% 30.04 in 10.0 mi NE 24.2 mph 29.9 mph N/A   Mostly Cloudy
1:35 AM 53.6 °F 35.6 °F 51% 30.05 in 10.0 mi NE 18.4 mph 25.3 mph N/A   Mostly Cloudy
1:55 AM 53.6 °F 37.4 °F 54% 30.05 in 10.0 mi ENE 16.1 mph - N/A   Scattered Clouds
2:15 AM 53.6 °F 37.4 °F 54% 30.03 in 10.0 mi ENE 16.1 mph 20.7 mph N/A   Scattered Clouds
2:35 AM 53.6 °F 37.4 °F 54% 30.02 in 10.0 mi East 16.1 mph 24.2 mph N/A   Clear
2:55 AM 53.6 °F 37.4 °F 54% 30.01 in 10.0 mi East 13.8 mph 18.4 mph N/A   Clear
3:15 AM 55.4 °F 37.4 °F 51% 30.01 in 10.0 mi East 10.4 mph - N/A   Clear
3:35 AM 55.4 °F 37.4 °F 51% 29.97 in 10.0 mi East 15.0 mph 19.6 mph N/A   Clear
3:55 AM 55.4 °F 37.4 °F 51% 30.00 in 10.0 mi East 4.6 mph - N/A   Clear
4:15 AM 55.4 °F 37.4 °F 51% 30.01 in 10.0 mi ENE 5.8 mph - N/A   Clear
4:35 AM 53.6 °F 37.4 °F 54% 29.99 in 10.0 mi East 5.8 mph - N/A   Clear
4:55 AM 53.6 °F 37.4 °F 54% 30.05 in 10.0 mi North 8.1 mph - N/A   Clear
5:15 AM 51.8 °F 37.4 °F 58% 30.02 in 10.0 mi NE 9.2 mph - N/A   Clear
5:35 AM 51.8 °F 37.4 °F 58% 30.03 in 10.0 mi NE 9.2 mph - N/A   Clear
5:55 AM 51.8 °F 37.4 °F 58% 30.05 in 10.0 mi NNE 10.4 mph - N/A   Scattered Clouds
6:15 AM 50.0 °F 37.4 °F 62% 30.05 in 10.0 mi NNE 9.2 mph - N/A   Scattered Clouds
6:35 AM 50.0 °F 41.0 °F 71% 30.05 in 10.0 mi NE 11.5 mph - N/A   Scattered Clouds
6:55 AM 50.0 °F 42.8 °F 76% 30.06 in 10.0 mi NNE 10.4 mph - N/A   Clear
7:15 AM 50.0 °F 42.8 °F 76% 30.07 in 10.0 mi NE 12.7 mph - N/A   Clear
7:35 AM 48.2 °F 42.8 °F 82% 30.08 in 7.0 mi NNE 10.4 mph - N/A   Clear
7:55 AM 48.2 °F 42.8 °F 82% 30.09 in 7.0 mi NNE 13.8 mph - N/A   Scattered Clouds
8:15 AM 50.0 °F 42.8 °F 76% 30.10 in 7.0 mi NNE 11.5 mph - N/A   Mostly Cloudy
8:35 AM 50.0 °F 42.8 °F 76% 30.10 in 7.0 mi NNE 11.5 mph - N/A   Mostly Cloudy
8:55 AM 51.8 °F 42.8 °F 71% 30.12 in 7.0 mi North 11.5 mph - N/A   Mostly Cloudy
9:15 AM 51.8 °F 42.8 °F 71% 30.12 in 7.0 mi NNE 9.2 mph - N/A   Overcast
9:35 AM 51.8 °F 42.8 °F 71% 30.12 in 7.0 mi North 10.4 mph - N/A   Mostly Cloudy
9:55 AM 53.6 °F 42.8 °F 67% 30.12 in 10.0 mi NNE 12.7 mph - N/A   Scattered Clouds
10:15 AM 53.6 °F 42.8 °F 67% 30.12 in 7.0 mi NNE 9.2 mph - N/A   Clear
10:35 AM 55.4 °F 42.8 °F 63% 30.12 in 10.0 mi NNE 8.1 mph - N/A   Scattered Clouds
10:55 AM 55.4 °F 42.8 °F 63% 30.13 in 10.0 mi NNE 9.2 mph - N/A   Scattered Clouds
11:15 AM 55.4 °F 42.8 °F 63% 30.13 in 10.0 mi NNE 6.9 mph - N/A   Clear
11:55 AM 60.8 °F 42.8 °F 52% 30.12 in 10.0 mi NE 12.7 mph - N/A   Clear
12:15 PM 60.8 °F 42.8 °F 52% 30.12 in 10.0 mi NNE 10.4 mph - N/A   Clear
12:35 PM 60.8 °F 42.8 °F 52% 30.11 in 7.0 mi NE 12.7 mph 18.4 mph N/A   Clear
12:55 PM 62.6 °F 42.8 °F 48% 30.11 in 10.0 mi NE 13.8 mph 20.7 mph N/A   Clear
1:15 PM 64.4 °F 42.8 °F 45% 30.11 in 10.0 mi ENE 12.7 mph 18.4 mph N/A   Clear
1:35 PM 64.4 °F 42.8 °F 45% 30.10 in 10.0 mi NE 16.1 mph 20.7 mph N/A   Clear
1:55 PM 64.4 °F 42.8 °F 45% 30.09 in 10.0 mi NE 16.1 mph 20.7 mph N/A   Clear
2:15 PM 64.4 °F 42.8 °F 45% 30.08 in 10.0 mi NE 15.0 mph - N/A   Clear
2:35 PM 64.4 °F 42.8 °F 45% 30.09 in 10.0 mi ENE 11.5 mph 17.3 mph N/A   Clear
2:55 PM 68.0 °F 42.8 °F 40% 30.08 in 10.0 mi ENE 11.5 mph 17.3 mph N/A   Clear
3:15 PM 68.0 °F 42.8 °F 40% 30.07 in 10.0 mi ENE 9.2 mph 17.3 mph N/A   Clear
3:35 PM 69.8 °F 42.8 °F 38% 30.06 in 10.0 mi East 9.2 mph 18.4 mph N/A   Clear
3:55 PM 69.8 °F 42.8 °F 38% 30.05 in 10.0 mi East 8.1 mph 16.1 mph N/A   Clear
4:15 PM 69.8 °F 39.2 °F 33% 30.05 in 10.0 mi East 8.1 mph 18.4 mph N/A   Clear
4:35 PM 69.8 °F 39.2 °F 33% 30.05 in 10.0 mi East 12.7 mph 18.4 mph N/A   Clear
4:55 PM 71.6 °F 37.4 °F 29% 30.04 in 10.0 mi East 8.1 mph - N/A   Clear
5:15 PM 71.6 °F 37.4 °F 29% 30.03 in 10.0 mi ENE 8.1 mph 18.4 mph N/A   Clear
5:35 PM 71.6 °F 35.6 °F 27% 30.03 in 10.0 mi ENE 12.7 mph - N/A   Clear
5:55 PM 71.6 °F 37.4 °F 29% 30.03 in 10.0 mi East 10.4 mph - N/A   Clear
6:15 PM 71.6 °F 37.4 °F 29% 30.04 in 10.0 mi East 10.4 mph - N/A   Clear
6:35 PM 71.6 °F 39.2 °F 31% 30.03 in 10.0 mi ENE 12.7 mph 16.1 mph N/A   Clear
6:55 PM 71.6 °F 37.4 °F 29% 30.03 in 10.0 mi East 10.4 mph 13.8 mph N/A   Clear
7:15 PM 71.6 °F 37.4 °F 29% 30.03 in 10.0 mi East 10.4 mph - N/A   Clear
7:35 PM 69.8 °F 37.4 °F 31% 30.04 in 10.0 mi East 12.7 mph - N/A   Clear
7:55 PM 69.8 °F 39.2 °F 33% 30.05 in 10.0 mi East 12.7 mph 16.1 mph N/A   Clear
8:15 PM 68.0 °F 41.0 °F 37% 30.05 in 10.0 mi East 10.4 mph - N/A   Clear
8:35 PM 66.2 °F 42.8 °F 43% 30.05 in 10.0 mi East 10.4 mph - N/A   Clear
8:55 PM 64.4 °F 42.8 °F 45% 30.05 in 10.0 mi East 8.1 mph - N/A   Clear
9:15 PM 62.6 °F 42.8 °F 48% 30.07 in 10.0 mi East 6.9 mph - N/A   Scattered Clouds
9:35 PM 62.6 °F 44.6 °F 52% 30.07 in 10.0 mi East 8.1 mph - N/A   Mostly Cloudy
9:55 PM 60.8 °F 44.6 °F 55% 30.08 in 10.0 mi East 8.1 mph - N/A   Scattered Clouds
10:15 PM 60.8 °F 44.6 °F 55% 30.10 in 10.0 mi East 5.8 mph - N/A   Scattered Clouds
10:35 PM 60.8 °F 44.6 °F 55% 30.10 in 10.0 mi East 6.9 mph - N/A   Mostly Cloudy
10:55 PM 60.8 °F 44.6 °F 55% 30.10 in 10.0 mi East 8.1 mph - N/A   Mostly Cloudy
11:15 PM 59.0 °F 46.4 °F 63% 30.11 in 10.0 mi East 5.8 mph - N/A   Mostly Cloudy
11:35 PM 59.0 °F 46.4 °F 63% 30.11 in 10.0 mi ESE 5.8 mph - N/A   Mostly Cloudy
11:55 PM 59.0 °F 46.4 °F 63% 30.11 in 10.0 mi East 5.8 mph - N/A   Scattered Clouds